Content
SEND FEEDBACK

Daily
Averages
Monthly
Summary
United States of America

DES PLAINES, ILLINOIS


Home > North America > United States > Illinois
Elevation: 651 feet     Latitude: 42 00N     Longitude: 087 54W

WEATHER
 
SELECT A DAY
Number of Records: 199,746;   Date Range: 7/8/95 - 12/23/14
 
SHARE

PRINT THIS DATA

[ ← Previous Day ]
WEATHER ALMANAC - JANUARY 26, 2014
[ Next Day → ]
[ °C ]   °F
Weather ElementAverageHighLow
Temperature17.8 °F30.2 °F (4:19 pm)6.8 °F (3:04 am)
Dewpoint10.3 °F21 °F (6:52 pm)-2.9 °F (1:52 am)
Humidity73.1 %87 % (4:52 am)54 % (8:52 pm)
Barometer29.56 in29.84 in (11:52 pm)29.40 in (1:08 pm)
Wind Speed14.9 mph27.6 mph (8:14 pm)
Wind Gust38 mph (9:52 pm)
Weather ElementAverage
Visibility7.4 mi
Wind DirectionWSW (237 °)

Weather ElementTotal
Precipitation---
Heating Degree Days46.5 (Base 65)
Averaged from 40 records on January 26, 2014
WEATHER CONDITIONS BREAKOUT
WIND DIRECTION BREAKOUT
WEATHER BY HOUR - JANUARY 26, 2014
[ °C ]   °F
Local TimeTemperatureDewpointHumidityBarometerVisibilityWind DirectionWind SpeedGust SpeedPrecipitationEventsConditions
1:52 AM8.1 °F-2.9 °F61 %29.73 inSouth (190°)10.4 mphOvercast
2:52 AM8.1 °F0.0 °F70 %29.73 inSSW (200°)8.1 mph0.00 inSnowSnow
3:04 AM6.8 °F1.4 °F79 %29.68 inSSW (200°)9.2 mph0.00 inSnowHeavy Snow
3:14 AM6.8 °F3.2 °F85 %29.67 inSouth (190°)8.1 mph0.00 inSnowSnow
3:52 AM7.0 °F3.0 °F84 %29.68 inSouth (180°)8.1 mph0.00 inSnowSnow
4:00 AM6.8 °F3.2 °F85 %29.63 inSouth (170°)6.9 mph0.00 inSnowSnow
4:39 AM6.8 °F3.2 °F85 %29.58 inSSE (160°)11.5 mph0.00 inSnowSnow
4:52 AM7.0 °F3.9 °F87 %29.62 inSSE (160°)9.2 mph0.00 inSnowSnow
5:20 AM8.6 °F3.2 °F79 %29.56 inSouth (170°)10.4 mph0.00 inSnowLight Snow
5:52 AM8.1 °F3.9 °F83 %29.57 inSouth (170°)12.7 mph0.00 inSnowLight Snow
6:52 AM9.0 °F5.0 °F84 %29.53 inSE (140°)6.9 mph0.00 inOvercast
7:52 AM10.9 °F7.0 °F84 %29.52 in10.0 miSouth (170°)11.5 mph0.00 inOvercast
8:52 AM12.9 °F8.1 °F81 %29.48 in10.0 miSouth (170°)11.5 mphOvercast
9:52 AM16.0 °F9.0 °F74 %29.44 in10.0 miSouth (180°)11.5 mphMostly Cloudy
10:52 AM21.0 °F12.0 °F68 %29.45 in10.0 miVariable5.8 mphOvercast
11:52 AM25.0 °F16.0 °F69 %29.44 in10.0 miWest (270°)16.1 mph23.0 mphOvercast
12:52 PM26.1 °F17.1 °F69 %29.43 in10.0 miWest (270°)15.0 mph26.5 mphOvercast
1:08 PM26.6 °F17.6 °F69 %29.40 in10.0 miWest (270°)11.5 mph24.2 mphMostly Cloudy
1:43 PM28.4 °F19.4 °F69 %29.40 in10.0 miWest (270°)16.1 mphScattered Clouds
1:52 PM28.0 °F19.0 °F69 %29.44 in10.0 miWest (270°)17.3 mph24.2 mphPartly Cloudy
2:52 PM30.0 °F19.9 °F66 %29.44 in10.0 miWest (260°)11.5 mph19.6 mphClear
3:52 PM30.0 °F19.9 °F66 %29.48 in10.0 miWest (260°)15.0 mph24.2 mphPartly Cloudy
4:19 PM30.2 °F19.4 °F64 %29.46 in10.0 miWest (260°)16.1 mph34.5 mphMostly Cloudy
4:52 PM28.9 °F19.0 °F67 %29.49 in10.0 miWest (270°)16.1 mph29.9 mphMostly Cloudy
4:59 PM28.4 °F19.4 °F69 %29.46 in10.0 miWest (270°)16.1 mph25.3 mphOvercast
5:52 PM28.9 °F18.0 °F64 %29.49 in10.0 miWest (280°)13.8 mph20.7 mph0.00 inSnowLight Snow
6:23 PM28.4 °F19.4 °F69 %29.48 in1.0 miWNW (290°)20.7 mph29.9 mph0.00 inSnowLight Snow
6:52 PM26.1 °F21.0 °F81 %29.54 in1.0 miWest (270°)12.7 mph20.7 mph0.00 inSnowLight Snow
7:15 PM24.8 °F17.6 °F74 %29.52 in1.0 miWNW (290°)19.6 mph31.1 mph0.00 inSnowLight Snow
7:22 PM24.8 °F17.6 °F74 %29.53 in2.0 miWNW (290°)11.5 mph25.3 mph0.00 inSnowLight Snow
7:47 PM21.2 °F17.6 °F86 %29.56 in2.0 miWNW (300°)24.2 mph36.8 mph0.00 inSnowHeavy Snow
7:52 PM21.9 °F18.0 °F85 %29.59 in1.0 miWNW (300°)17.3 mph35.7 mph0.00 inSnowHeavy Snow
8:14 PM19.4 °F14.0 °F80 %29.56 in1.0 miWNW (300°)27.6 mph35.7 mph0.00 inSnowLight Snow
8:28 PM19.4 °F8.6 °F63 %29.57 in7.0 miWNW (300°)23.0 mph31.1 mph0.00 inSnowLight Snow
8:52 PM19.0 °F5.0 °F54 %29.62 in10.0 miWNW (290°)17.3 mph31.1 mph0.00 inOvercast
9:52 PM14.0 °F0.0 °F54 %29.68 in10.0 miWest (280°)25.3 mph38.0 mph0.00 inPartly Cloudy
10:36 PM10.4 °F1.4 °F67 %29.69 inWNW (290°)23.0 mph29.9 mph0.00 inMostly Cloudy
10:49 PM10.4 °F1.4 °F67 %29.72 inWNW (300°)24.2 mph36.8 mph0.00 inOvercast
10:52 PM10.0 °F1.9 °F70 %29.75 inWNW (290°)23.0 mph36.8 mph0.00 inOvercast
11:52 PM8.1 °F0.0 °F70 %29.84 inWNW (290°)18.4 mph26.5 mphOvercast
Hourly data recorded from KPWK, located miles away from Des Plaines, Illinois







STORIES FROM OUR PARTNERS